Previsão horária em Semykhatky

Hoje, 29 Novembro, Domingo

Tempo Temperatura Precipitação Vento Pressão Humidade
00:00 +3°C° 0 mm 1 m/s 756 mmHg 90%
01:00 +3°C° 0 mm 1 m/s 756 mmHg 89%
02:00 +3°C° 0 mm 1 m/s 756 mmHg 89%
03:00 +3°C° 0 mm 1 m/s 756 mmHg 89%
04:00 +2°C° 0 mm 1 m/s 756 mmHg 89%
05:00 +2°C° 0 mm 1 m/s 756 mmHg 90%
06:00 +2°C° 0 mm 1 m/s 756 mmHg 89%
07:00 +3°C° 0 mm 1 m/s 756 mmHg 89%
08:00 +3°C° 0 mm 1 m/s 756 mmHg 88%
09:00 +3°C° 0.1 mm 1 m/s 756 mmHg 88%
10:00 +4°C° 0.1 mm 1 m/s 757 mmHg 89%
11:00 +4°C° 0.1 mm 1 m/s 757 mmHg 89%
12:00 +5°C° 0 mm 1 m/s 757 mmHg 87%
13:00 +5°C° 0 mm 1 m/s 757 mmHg 86%
14:00 +5°C° 0 mm 1 m/s 757 mmHg 85%
15:00 +5°C° 0 mm 1 m/s 757 mmHg 86%
16:00 +4°C° 0 mm 2 m/s 757 mmHg 88%
17:00 +3°C° 0 mm 2 m/s 757 mmHg 89%
18:00 +3°C° 0 mm 2 m/s 757 mmHg 90%
19:00 +3°C° 0 mm 2 m/s 757 mmHg 91%
20:00 +3°C° 0 mm 2 m/s 757 mmHg 92%
21:00 +2°C° 0 mm 2 m/s 757 mmHg 92%
22:00 +2°C° 0 mm 2 m/s 757 mmHg 92%
23:00 +2°C° 0 mm 2 m/s 757 mmHg 93%

Amanhã, 30 Novembro, Segunda-feira

Tempo Temperatura Precipitação Vento Pressão Humidade
00:00 +1°C° 0 mm 3 m/s 757 mmHg 93%
01:00 +1°C° 0 mm 3 m/s 757 mmHg 93%
02:00 +1°C° 0 mm 3 m/s 757 mmHg 94%
03:00 +1°C° 0 mm 3 m/s 757 mmHg 93%
04:00 0°C° 0 mm 4 m/s 757 mmHg 93%
05:00 0°C° 0 mm 4 m/s 757 mmHg 93%
06:00 +1°C° 0 mm 4 m/s 757 mmHg 91%
07:00 +1°C° 0 mm 4 m/s 758 mmHg 90%
08:00 +1°C° 0 mm 4 m/s 758 mmHg 89%
09:00 +1°C° 0.1 mm 4 m/s 758 mmHg 88%
10:00 +2°C° 0.1 mm 5 m/s 758 mmHg 86%
11:00 +2°C° 0.1 mm 5 m/s 758 mmHg 85%
12:00 +2°C° 0.5 mm 5 m/s 758 mmHg 87%
13:00 +1°C° 0.5 mm 5 m/s 758 mmHg 90%
14:00 +1°C° 0.5 mm 6 m/s 758 mmHg 93%
15:00 +1°C° 0.6 mm 6 m/s 758 mmHg 93%
16:00 +1°C° 0.6 mm 6 m/s 758 mmHg 92%
17:00 +1°C° 0.6 mm 6 m/s 758 mmHg 92%
18:00 -1°C° 0.3 mm 6 m/s 758 mmHg 92%
19:00 -1°C° 0.3 mm 6 m/s 758 mmHg 91%
20:00 -1°C° 0.3 mm 7 m/s 759 mmHg 91%
21:00 -1°C° 0 mm 7 m/s 759 mmHg 90%
22:00 -1°C° 0 mm 7 m/s 759 mmHg 90%
23:00 -1°C° 0 mm 7 m/s 759 mmHg 90%

Depois de amanhã, 1 Dezembro, Terça-feira

Tempo Temperatura Precipitação Vento Pressão Humidade
00:00 -1°C° 0 mm 7 m/s 759 mmHg 89%
01:00 -1°C° 0 mm 7 m/s 759 mmHg 88%
02:00 -1°C° 0 mm 7 m/s 759 mmHg 87%
03:00 -1°C° 0 mm 6 m/s 759 mmHg 87%
04:00 -1°C° 0 mm 6 m/s 759 mmHg 87%
05:00 -1°C° 0 mm 6 m/s 758 mmHg 86%
06:00 -1°C° 0 mm 6 m/s 759 mmHg 87%
07:00 +1°C° 0 mm 5 m/s 759 mmHg 87%
08:00 +1°C° 0 mm 5 m/s 759 mmHg 87%
09:00 +1°C° 0 mm 5 m/s 759 mmHg 86%
10:00 +2°C° 0 mm 5 m/s 759 mmHg 85%
11:00 +2°C° 0 mm 5 m/s 759 mmHg 83%
12:00 +2°C° 0 mm 5 m/s 759 mmHg 82%
13:00 +3°C° 0 mm 5 m/s 759 mmHg 81%
14:00 +4°C° 0 mm 4 m/s 759 mmHg 80%
15:00 +4°C° 0 mm 4 m/s 759 mmHg 81%
16:00 +4°C° 0 mm 4 m/s 759 mmHg 82%
17:00 +3°C° 0 mm 4 m/s 759 mmHg 82%
18:00 +3°C° 0 mm 3 m/s 759 mmHg 82%
19:00 +3°C° 0 mm 3 m/s 759 mmHg 82%
20:00 +3°C° 0 mm 3 m/s 759 mmHg 81%
21:00 +3°C° 0 mm 3 m/s 759 mmHg 81%
22:00 +3°C° 0 mm 3 m/s 759 mmHg 80%
23:00 +2°C° 0 mm 3 m/s 759 mmHg 80%

2 Dezembro, Quarta-feira

Tempo Temperatura Precipitação Vento Pressão Humidade
00:00 +2°C° 0 mm 3 m/s 759 mmHg 81%
01:00 +2°C° 0 mm 3 m/s 759 mmHg 81%
02:00 +2°C° 0 mm 3 m/s 759 mmHg 82%
03:00 +2°C° 0 mm 3 m/s 759 mmHg 83%
04:00 +3°C° 0 mm 2 m/s 759 mmHg 84%
05:00 +2°C° 0 mm 2 m/s 759 mmHg 85%
06:00 +2°C° 0 mm 2 m/s 759 mmHg 87%
07:00 +2°C° 0 mm 2 m/s 759 mmHg 89%
08:00 +2°C° 0 mm 2 m/s 759 mmHg 92%
09:00 +2°C° 0 mm 2 m/s 759 mmHg 89%
10:00 +2°C° 0 mm 3 m/s 759 mmHg 86%
11:00 +3°C° 0 mm 3 m/s 760 mmHg 82%
12:00 +3°C° 0.1 mm 3 m/s 759 mmHg 84%
13:00 +3°C° 0.1 mm 3 m/s 759 mmHg 85%
14:00 +3°C° 0.1 mm 3 m/s 759 mmHg 86%
15:00 +2°C° 0.1 mm 3 m/s 759 mmHg 88%
16:00 +3°C° 0.1 mm 2 m/s 759 mmHg 89%
17:00 +3°C° 0.1 mm 2 m/s 759 mmHg 90%
18:00 +3°C° 0.2 mm 2 m/s 759 mmHg 91%
19:00 +3°C° 0.2 mm 2 m/s 759 mmHg 91%
20:00 +3°C° 0.2 mm 2 m/s 759 mmHg 92%
21:00 +3°C° 0.1 mm 2 m/s 760 mmHg 92%
22:00 +4°C° 0.1 mm 1 m/s 760 mmHg 92%
23:00 +4°C° 0.1 mm 1 m/s 760 mmHg 91%

3 Dezembro, Quinta-feira

Tempo Temperatura Precipitação Vento Pressão Humidade
00:00 +4°C° 0 mm 1 m/s 760 mmHg 92%
01:00 +4°C° 0 mm 1 m/s 760 mmHg 92%
02:00 +4°C° 0 mm 1 m/s 760 mmHg 92%
03:00 +4°C° 0 mm 1 m/s 760 mmHg 93%
04:00 +3°C° 0 mm 1 m/s 759 mmHg 93%
05:00 +2°C° 0 mm 0 m/s 759 mmHg 94%
06:00 +3°C° 0 mm 1 m/s 759 mmHg 94%
07:00 +3°C° 0 mm 1 m/s 760 mmHg 94%
08:00 +2°C° 0 mm 1 m/s 760 mmHg 94%
09:00 +3°C° 0 mm 1 m/s 760 mmHg 87%
10:00 +4°C° 0 mm 1 m/s 760 mmHg 80%
11:00 +5°C° 0 mm 1 m/s 760 mmHg 73%
12:00 +6°C° 0 mm 1 m/s 760 mmHg 71%
13:00 +6°C° 0 mm 1 m/s 759 mmHg 68%
14:00 +6°C° 0 mm 1 m/s 759 mmHg 65%
15:00 +6°C° 0 mm 1 m/s 759 mmHg 67%
16:00 +6°C° 0 mm 1 m/s 759 mmHg 68%
17:00 +5°C° 0 mm 2 m/s 759 mmHg 69%
18:00 +5°C° 0 mm 2 m/s 759 mmHg 70%
19:00 +4°C° 0 mm 3 m/s 759 mmHg 71%
20:00 +4°C° 0 mm 3 m/s 759 mmHg 71%
21:00 +4°C° 0 mm 3 m/s 759 mmHg 78%
22:00 +3°C° 0 mm 4 m/s 759 mmHg 84%
23:00 +1°C° 0 mm 4 m/s 759 mmHg 90%

4 Dezembro, Sexta-feira

Tempo Temperatura Precipitação Vento Pressão Humidade
00:00 +1°C° 0 mm 4 m/s 759 mmHg 91%
01:00 +1°C° 0 mm 3 m/s 758 mmHg 92%
02:00 +1°C° 0 mm 3 m/s 758 mmHg 92%
03:00 +1°C° 0 mm 3 m/s 758 mmHg 93%
04:00 -1°C° 0 mm 4 m/s 758 mmHg 93%
05:00 -1°C° 0 mm 4 m/s 758 mmHg 94%
06:00 -1°C° 0 mm 4 m/s 758 mmHg 94%
07:00 -1°C° 0 mm 4 m/s 758 mmHg 94%
08:00 -1°C° 0 mm 4 m/s 758 mmHg 94%
09:00 +1°C° 0 mm 5 m/s 758 mmHg 89%
10:00 +2°C° 0 mm 5 m/s 758 mmHg 85%
11:00 +3°C° 0 mm 5 m/s 757 mmHg 80%
12:00 +5°C° 0 mm 5 m/s 757 mmHg 79%
13:00 +5°C° 0 mm 5 m/s 757 mmHg 78%
14:00 +5°C° 0 mm 5 m/s 756 mmHg 76%
15:00 +5°C° 0 mm 5 m/s 756 mmHg 78%
16:00 +5°C° 0 mm 5 m/s 756 mmHg 80%
17:00 +5°C° 0 mm 4 m/s 756 mmHg 81%
18:00 +5°C° 0 mm 5 m/s 756 mmHg 82%
19:00 +3°C° 0 mm 5 m/s 756 mmHg 83%
20:00 +2°C° 0 mm 6 m/s 756 mmHg 84%
21:00 +2°C° 0 mm 6 m/s 756 mmHg 87%
22:00 +2°C° 0 mm 6 m/s 755 mmHg 89%
23:00 +1°C° 0 mm 6 m/s 755 mmHg 92%
Mostrar mais

Necessitamos do seu Consentimento

A Meteoprog e os seus Fornecedores de Serviços podem armazenar e aceder a dados pessoais como cookies, identificadores do dispositivo ou outras tecnologias semelhantes existentes no seu dispositivo e processar estes dados para personalizar conteúdos e anúncios, assim como funcionalidades nas redes sociais e análise de tráfego.

  • Armazenar e/ou aceder a informações no seu dispositivo

    Os cookies, identificadores do dispositivo ou outras informações podem ser armazenados ou acedidos no seu dispositivo, para os fins acima indicados.

  • Anúncios e conteúdos personalizados, medição de anúncios e conteúdos, dados sobre o público-alvo e desenvolvimento de produtos

    Os anúncios e os conteúdos podem ser personalizados com base num perfil. Podem ser adicionados dados adicionais para uma maior personalização dos anúncios e dos conteúdos. A eficácia dos anúncios e dos conteúdos pode ser medida. Podem ser obtidas informações sobre o público que visualizou os anúncios e os conteúdos. Estes dados podem ser usados para desenvolver ou melhorar sistemas, softwares ou a experiência do utilizador.

Ao clicar em "Eu concordo”, permitirá o uso de cookies, identificadores do dispositivo e web beacons mencionados ou outras tecnologias semelhantes. As configurações do navegador do seu dispositivo podem ser alteradas.

Para certos fins, podem ser invocados interesses legítimos ao invés de consentimento. Pode ler mais informação sobre este assunto na nossa Política de Privacidade e Cookies.